[[{"header":{"parameterUnit":"m.s-1","parameterCategory":1,"la1":30.2991,"la2":30.254,"lo1":-89.0895,"lo2":-89.0444,"dy":0.0017,"dx":0.0017,"nx":28,"ny":28,"refTime":"2025-06-02T03:00:00:Z","depth":0,"parameterNumber":2,"parameterNumberName":"U-component_of_WINDS"},"data":[0,0,0,0,0,0,0,0,0,0,0,0,0,0,0,0,0,0,0,0,0,0,0,0,0,0,0,0,0,0,0,0,0,0,0,0,0,0,0,0,0,0,0,0,0,0,0,0,0,0,0,0,0,0,0,0,0,0,-5.9977,-5.9977,0,-5.9973,-5.9973,-5.9973,-5.984,-5.9837,-5.9833,-5.983,-5.9828,-5.9831,-5.9834,0,0,0,0,0,0,0,0,0,0,0,0,0,-5.9872,-5.9875,-5.9977,-5.9977,-5.9977,-5.9973,-5.9973,-5.9973,-5.9841,-5.9836,-5.9832,-5.9828,-5.9827,-5.983,-5.9834,0,0,0,0,0,0,0,0,0,0,0,0,0,-5.9898,-5.9876,-5.9977,-5.991,-5.9904,-5.9973,-5.9973,-5.9973,-5.9842,-5.9836,-5.9831,-5.9826,-5.9825,-5.983,-5.9835,-5.9967,0,0,-5.9849,-5.9851,0,0,0,0,0,0,0,0,-5.9897,-5.9902,-5.992,-5.9915,-5.9908,-5.9902,-5.9935,-5.9971,-5.9843,-5.9865,-5.983,-5.9824,-5.9857,-5.9858,-5.9869,-5.9967,-5.9967,-5.985,-5.9852,-5.9855,-5.9856,0,0,0,0,0,0,0,-5.9895,-5.9901,-5.9975,-5.9921,-5.9913,-5.9881,-5.9879,-5.9941,-5.989,-5.9863,-5.9853,-5.9855,-5.9852,-5.9865,-5.9868,-5.9967,-5.9849,-5.9854,-5.9857,-5.9858,-6.0175,-6.0181,0,0,0,0,0,0,-5.9902,-5.9901,-5.9975,-5.9975,-5.989,-5.9888,-5.9885,-5.9909,-5.9889,-5.9881,-5.9859,-5.9849,-5.9859,-5.9863,-5.9868,-6.0022,-5.9854,-5.9859,-5.9862,-6.017,-6.0177,-6.0183,0,0,0,0,0,0,-5.99,-5.991,-5.9976,-5.9935,-5.9941,-5.9895,-5.9923,-5.9912,-5.9924,-5.9886,-5.9876,-5.9881,-5.9855,-5.9861,-5.9944,-6.002,-5.9861,-5.9865,-6.0163,-6.0172,-6.018,-6.0331,0,0,0,0,0,0,-5.9898,-5.991,-5.9959,-5.9938,-5.9944,-6.0051,-5.9927,-5.9915,-5.9932,-5.9918,-5.9904,-5.9897,-5.9852,-5.9937,-5.9949,-6.0023,-5.9869,-6.0156,-6.0167,-6.0177,-6.0319,-6.0344,-6.0365,0,0,0,0,0,-5.9895,-6.0002,-5.9963,-5.9972,-6.0004,-6.0056,-6.006,-6.0005,-5.9939,-5.9988,-5.9964,-5.9897,-6.001,-5.9947,-5.9958,-6.0036,-6.0151,-6.0164,-6.0176,-6.0309,-6.0339,-6.0364,0,0,0,0,0,0,-6.0034,-5.9998,-5.9954,-6.0057,-6.0061,-6.0033,-6.0094,-6.0039,-6.0061,-6.0047,-5.9979,-5.9977,-6.0071,-6.0062,-5.9992,-6.0164,-6.0069,-6.0084,-6.0166,-6.0194,-6.0217,-6.0216,-5.9873,0,0,0,0,0,-6.0077,-6.0121,-6.0088,-6.0183,-6.0187,-6.0141,-6.0161,-6.0119,-6.012,-6.0121,-6.0103,-6.0107,-6.0143,-6.0168,-6.02,-6.0318,-6.0313,-6.0377,-6.04,-6.0419,-6.0433,-6.0496,-6.0524,-6.0224,-6.0224,-6.0224,0,0,-6.0166,-6.0152,-6.0184,-6.021,-6.0208,-6.0256,-6.0142,-6.0198,-6.0233,-6.0129,-6.0206,-6.0194,-6.0194,-6.0296,-6.0339,-6.0291,-6.0515,-6.0435,-6.0451,-6.0454,-6.0511,-6.054,-6.0565,-6.0233,-6.0231,-6.023,0,0,-6.0352,-6.0346,-6.0424,-6.0425,-6.0423,-6.0392,-6.0411,-6.0393,-6.038,-6.0457,-6.038,-6.0422,-6.0486,-6.0489,-6.05,-6.0691,-6.063,-6.0703,-6.0821,-6.0883,-6.0907,-6.0927,-6.0995,-6.1021,-6.0717,-6.0717,-6.0718,0,-6.0462,-6.0531,-6.0471,-6.0532,-6.0547,-6.0456,-6.0535,-6.0539,-6.0548,-6.056,-6.0506,-6.0585,-6.0579,-6.068,-6.0727,-6.0739,-6.0759,-6.0703,-6.0908,-6.0928,-6.0947,-6.1011,-6.1036,-6.0726,-6.0725,-6.0724,-6.0723,0,-6.0667,-6.0716,-6.078,-6.0791,-6.0813,-6.0883,-6.0835,-6.0865,-6.0822,-6.0797,-6.0877,-6.0867,-6.0895,-6.0916,-6.0875,-6.1013,-6.0983,-6.092,-6.0822,-6.0985,-6.1044,-6.1068,-6.0739,-6.0736,-6.0733,-6.0731,0,0,-6.0937,-6.0917,-6.0941,-6.0945,-6.0938,-6.0975,-6.1043,-6.107,-6.1097,-6.1107,-6.1162,-6.1219,-6.1161,-6.1173,-6.1132,-6.1187,-6.1339,-6.1117,-6.1116,-6.1158,-6.1491,-6.1537,-6.1566,-6.13,-6.1304,-6.1308,-6.149,0,-6.1117,-6.1229,-6.1179,-6.1296,-6.1341,-6.1257,-6.1316,-6.1318,-6.1298,-6.1334,-6.1312,-6.1354,-6.1274,-6.1281,-6.1331,-6.131,-6.1405,-6.1296,-6.135,-6.1353,-6.1351,-6.1597,-6.1646,-6.1819,-6.1513,-6.1517,-6.152,0,-6.134,-6.136,-6.1482,-6.1468,-6.1485,-6.1538,-6.156,-6.1596,-6.1598,-6.158,-6.1595,-6.1542,-6.1607,-6.1513,-6.1603,-6.1531,-6.155,-6.1544,-6.1549,-6.155,-6.1445,-6.1605,-6.1873,-6.1898,-6.1556,-6.1553,-6.155,0,-6.1525,-6.1582,-6.1663,-6.1669,-6.1655,-6.1695,-6.1691,-6.1688,-6.1708,-6.1728,-6.1741,-6.1769,-6.1784,-6.1807,-6.1764,-6.1699,-6.1861,-6.1762,-6.1847,-6.1849,-6.1883,-6.1881,-6.2157,-6.1899,-6.1899,-6.1898,-6.1897,0,-6.1729,-6.1807,-6.1746,-6.1795,-6.1881,-6.1824,-6.191,-6.1897,-6.1896,-6.1942,-6.1872,-6.1917,-6.1857,-6.1897,-6.1864,-6.1944,-6.1952,-6.1939,-6.1929,-6.1945,-6.1946,-6.1955,-6.1942,-6.1905,-6.1903,-6.1902,-6.1901,0,-6.1949,-6.1911,-6.1993,-6.1974,-6.1971,-6.2035,-6.2018,-6.2064,-6.204,-6.21,-6.211,-6.2073,-6.2116,-6.2076,-6.2118,-6.2095,-6.2202,-6.2176,-6.2201,-6.2193,-6.2281,-6.2273,-6.2571,-6.2607,-6.2327,-6.233,-6.2332,0,-6.2081,-6.2139,-6.2126,-6.2152,-6.2153,-6.2195,-6.2216,-6.2163,-6.2188,-6.2196,-6.2241,-6.2279,-6.2306,-6.238,-6.2357,-6.2389,-6.2361,-6.2464,-6.2366,-6.238,-6.2362,-6.2359,-6.2364,-6.2483,-6.2487,-6.2489,-6.2492,0,-6.2319,-6.2298,-6.233,-6.2357,-6.2383,-6.2402,-6.2415,-6.2441,-6.2386,-6.2418,-6.2461,-6.2483,-6.2526,-6.2564,-6.259,-6.2586,-6.2531,-6.2523,-6.2544,-6.256,-6.2572,-6.2566,-6.2254,-6.2516,-6.2513,-6.2512,-6.251,-6.2509,-6.2498,-6.2546,-6.2545,-6.2584,-6.2588,-6.2603,-6.2645,-6.2627,-6.2662,-6.2692,-6.266,-6.2714,-6.2716,-6.2744,-6.2748,-6.279,-6.2747,-6.2778,-6.2786,-6.2794,-6.2806,-6.2567,-6.2795,-6.2794,-6.2793,-6.2793,-6.2792,0,-6.2732,-6.2728,-6.2764,-6.2785,-6.2816,-6.2762,-6.2774,-6.2804,-6.2851,-6.2859,-6.2887,-6.2939,-6.2976,-6.2958,-6.2991,-6.3028,-6.3003,-6.3038,-6.3034,-6.3035,-6.2843,-6.2821,-6.3058,-6.3058,-6.3058,-6.3058,-6.3057,-6.3057,-6.2857,-6.2936,-6.2915,-6.2996,-6.2991,-6.3043,-6.3055,-6.3068,-6.3074,-6.3134,-6.3165,-6.3153,-6.315,-6.3183,-6.3215,-6.3209,-6.3224,-6.3268,-6.3253,-6.3074,-6.3048,-6.3023,-6.3002,-6.3272,-6.3273,-6.344,-6.3442,-6.3443]},{"header":{"parameterUnit":"m.s-1","parameterCategory":1,"la1":30.2991,"la2":30.254,"lo1":-89.0895,"lo2":-89.0444,"dy":0.0017,"dx":0.0017,"nx":28,"ny":28,"refTime":"2025-06-02T03:00:00:Z","depth":0,"parameterNumber":3,"parameterNumberName":"V-component_of_WINDS"},"data":[0,0,0,0,0,0,0,0,0,0,0,0,0,0,0,0,0,0,0,0,0,0,0,0,0,0,0,0,0,0,0,0,0,0,0,0,0,0,0,0,0,0,0,0,0,0,0,0,0,0,0,0,0,0,0,0,0,0,1.3607,1.3608,0,1.3667,1.3667,1.3668,1.3773,1.3775,1.3777,1.3779,1.3835,1.3835,1.3834,0,0,0,0,0,0,0,0,0,0,0,0,0,1.3581,1.3581,1.3607,1.3608,1.3608,1.3666,1.3667,1.3668,1.3773,1.3775,1.3778,1.378,1.3835,1.3835,1.3834,0,0,0,0,0,0,0,0,0,0,0,0,0,1.3611,1.3581,1.3607,1.3668,1.3674,1.3666,1.3667,1.3668,1.3772,1.3775,1.3778,1.3781,1.3835,1.3835,1.3834,1.3771,0,0,1.3833,1.3832,0,0,0,0,0,0,0,0,1.3609,1.3612,1.3658,1.3663,1.367,1.3716,1.3679,1.3702,1.3771,1.3735,1.3779,1.3782,1.3793,1.3796,1.38,1.3773,1.3776,1.3833,1.3832,1.3832,1.3832,0,0,0,0,0,0,0,1.3607,1.361,1.363,1.3658,1.3666,1.3691,1.3699,1.3684,1.3746,1.3738,1.3746,1.3752,1.3797,1.38,1.3802,1.3777,1.3833,1.3832,1.3832,1.3832,1.3701,1.3699,0,0,0,0,0,0,1.3596,1.3607,1.3629,1.3632,1.3647,1.3689,1.3698,1.3698,1.3746,1.3757,1.3749,1.3756,1.38,1.3803,1.3805,1.3733,1.3832,1.3832,1.3831,1.3705,1.3701,1.3697,0,0,0,0,0,0,1.3595,1.3597,1.3626,1.3622,1.3628,1.3686,1.3686,1.3697,1.3702,1.3755,1.3766,1.3742,1.3802,1.3805,1.3779,1.3737,1.3831,1.3831,1.3708,1.3703,1.3699,1.359,0,0,0,0,0,0,1.3594,1.3596,1.3573,1.3621,1.3627,1.36,1.3683,1.3696,1.3701,1.3711,1.3751,1.376,1.3805,1.3779,1.3778,1.3738,1.383,1.3712,1.3706,1.3701,1.3597,1.3582,1.3569,0,0,0,0,0,1.3593,1.3539,1.3571,1.3573,1.36,1.3597,1.3601,1.3655,1.3697,1.3674,1.3709,1.3759,1.3742,1.3776,1.3776,1.3734,1.3715,1.3708,1.3701,1.3604,1.3585,1.3569,0,0,0,0,0,0,1.3482,1.3546,1.3583,1.3543,1.3564,1.3615,1.3587,1.3633,1.3641,1.365,1.3715,1.3723,1.3688,1.3709,1.3745,1.3676,1.3737,1.3729,1.3663,1.3645,1.3631,1.3626,1.383,0,0,0,0,0,1.3454,1.3447,1.3503,1.3462,1.3471,1.3527,1.3528,1.3568,1.3592,1.3601,1.3633,1.3653,1.3653,1.3651,1.3653,1.3602,1.3612,1.3574,1.3559,1.3547,1.3539,1.3514,1.3497,1.3674,1.3674,1.3675,0,0,1.3394,1.3428,1.3419,1.3441,1.3462,1.3453,1.3534,1.352,1.3514,1.3598,1.3575,1.36,1.3627,1.3588,1.3572,1.3604,1.3493,1.3538,1.3528,1.3527,1.3505,1.3488,1.3473,1.367,1.367,1.3671,0,0,1.3279,1.3305,1.3274,1.3294,1.3326,1.3364,1.3356,1.3401,1.3421,1.34,1.3463,1.3456,1.3454,1.3471,1.3478,1.3373,1.342,1.3372,1.3296,1.3271,1.3257,1.3245,1.3206,1.3191,1.3365,1.3364,1.3364,0,1.32,1.319,1.3251,1.3235,1.3242,1.3321,1.3289,1.3306,1.3335,1.3338,1.3375,1.3374,1.3398,1.3364,1.3338,1.3343,1.3335,1.3366,1.3254,1.3242,1.3232,1.3196,1.3181,1.3358,1.3359,1.336,1.336,0,1.309,1.3082,1.3053,1.3082,1.3087,1.3062,1.312,1.3117,1.3158,1.3191,1.3169,1.3201,1.3211,1.3207,1.3245,1.3178,1.3197,1.3242,1.3305,1.3208,1.3175,1.3162,1.3349,1.3352,1.3353,1.3355,0,0,1.2904,1.297,1.2958,1.2973,1.3015,1.3009,1.2989,1.3001,1.2997,1.3016,1.3,1.2997,1.3041,1.305,1.3091,1.3069,1.2982,1.3118,1.3119,1.309,1.291,1.2873,1.2856,1.3015,1.3013,1.3011,1.2907,0,1.2797,1.2767,1.2823,1.2779,1.2772,1.2848,1.2831,1.2854,1.2886,1.2884,1.2919,1.2916,1.2974,1.298,1.2962,1.2997,1.2947,1.3005,1.2999,1.2998,1.2987,1.2839,1.2801,1.2701,1.2895,1.2893,1.2891,0,1.2667,1.2682,1.2637,1.2683,1.2683,1.2666,1.2682,1.268,1.2708,1.2733,1.2744,1.2794,1.2777,1.2839,1.2815,1.2854,1.2855,1.2872,1.287,1.2869,1.2936,1.2833,1.2671,1.2655,1.2872,1.2873,1.2874,0,1.2534,1.2543,1.2518,1.2528,1.2581,1.2568,1.2589,1.2621,1.2625,1.2639,1.2642,1.2653,1.2659,1.2666,1.2717,1.2758,1.2687,1.2754,1.2706,1.2704,1.2685,1.2685,1.2518,1.2689,1.2689,1.2689,1.269,0,1.2407,1.2377,1.2459,1.2443,1.2411,1.2476,1.2443,1.2472,1.25,1.249,1.2557,1.2546,1.2616,1.2613,1.2653,1.2627,1.2629,1.2648,1.2658,1.264,1.2638,1.264,1.2647,1.2685,1.2686,1.2687,1.2688,0,1.2252,1.2306,1.2284,1.2337,1.235,1.2324,1.2369,1.2356,1.2394,1.2381,1.2382,1.244,1.244,1.2493,1.2503,1.253,1.2486,1.251,1.2477,1.2483,1.2432,1.2435,1.2259,1.2239,1.2424,1.2422,1.2421,0,1.2166,1.2145,1.2197,1.2197,1.2215,1.2213,1.2218,1.2283,1.2285,1.2317,1.23,1.2306,1.2314,1.231,1.2352,1.236,1.2384,1.2322,1.2386,1.2369,1.2381,1.2381,1.2379,1.2308,1.2305,1.2303,1.2302,0,1.2008,1.2037,1.2042,1.2057,1.2062,1.2077,1.2096,1.2091,1.2161,1.2161,1.2163,1.2169,1.2181,1.2185,1.2202,1.2223,1.2273,1.2282,1.2271,1.2251,1.2232,1.2241,1.2438,1.2285,1.2287,1.2288,1.2289,1.229,1.1884,1.1869,1.1904,1.1908,1.193,1.1946,1.1937,1.1974,1.1977,1.1993,1.2031,1.2026,1.2057,1.2085,1.2102,1.2098,1.2129,1.2114,1.2109,1.2104,1.2093,1.2235,1.2102,1.2103,1.2103,1.2104,1.2104,0,1.1728,1.1755,1.1759,1.1784,1.1787,1.1838,1.1861,1.186,1.1856,1.1881,1.1888,1.189,1.1896,1.1939,1.195,1.1939,1.1962,1.1939,1.1939,1.1943,1.2066,1.2074,1.192,1.192,1.192,1.192,1.192,1.192,1.1647,1.1624,1.1657,1.1645,1.1672,1.1669,1.1678,1.1694,1.1714,1.1714,1.172,1.1749,1.1782,1.1795,1.1802,1.1815,1.1815,1.1783,1.1803,1.1917,1.1934,1.1951,1.1959,1.1783,1.1783,1.1681,1.168,1.1679]}]]